Wind_Speed
7 8 9 9 9 9 5 6 7 9 10 10 9 8 7 6 6 5 4 3 3 3 3 4 3 2 1 2 3 4 5 5 5 5 5 5 5 6 6 6 7 6 6 5 5 5 5 5 6
4 5 6 8 10 6 3 3 5 8 9 9 8 8 8 7 6 5 4 2 1 1 1 2 1 1 2 3 4 5 6 6 6 6 6 6 6 6 7 7 8 8 7 7 5 4 4 4 4
2 2 3 5 6 3 3 3 2 3 4 5 5 6 6 5 5 4 3 3 3 3 3 3 3 3 4 5 6 6 6 6 6 7 6 6 6 6 7 8 9 10 10 10 9 8 7 6 5
3 2 1 2 1 2 3 4 4 3 2 1 1 2 3 3 3 2 2 3 3 3 4 4 5 5 6 6 7 7 7 7 7 7 7 6 6 7 8 10 11 12 12 12 11 11 10 9 8
6 4 2 2 3 3 4 4 4 4 5 4 3 2 1 1 1 1 1 2 3 3 3 4 4 5 5 6 6 7 7 7 7 7 7 7 8 9 10 11 12 13 13 13 13 12 12 11 11
10 8 5 6 7 5 5 4 5 6 6 4 3 2 1 1 1 1 1 2 3 3 4 4 5 5 5 5 6 6 7 7 7 8 9 9 10 11 12 13 14 14 14 14 14 14 13 13 13
14 12 10 11 10 8 6 6 7 7 7 5 4 3 2 1 1 1 2 3 4 5 6 7 8 8 8 8 8 8 8 8 9 10 11 12 13 14 15 16 16 16 15 15 15 16 16 16 15
18 15 14 14 13 11 8 7 7 6 6 5 5 3 2 1 2 2 4 5 7 9 10 12 13 13 13 13 13 12 12 12 13 13 14 16 17 17 18 19 19 19 19 19 19 19 19 19 19
20 18 18 18 16 13 11 9 7 6 5 5 5 6 5 6 7 8 9 11 12 14 16 17 18 19 20 20 20 19 19 19 19 20 20 20 21 21 22 22 23 23 23 23 23 23 22 23 23
21 21 23 20 18 16 13 11 8 6 7 8 8 8 9 10 12 13 15 17 19 20 21 22 23 23 24 25 25 25 25 25 26 26 25 25 25 25 25 26 27 27 28 28 28 28 27 27 27
22 24 24 22 21 19 16 13 11 9 9 10 11 12 14 15 17 19 21 22 24 25 26 26 26 26 27 28 28 29 29 29 29 30 30 30 30 30 30 31 31 32 33 33 34 33 32 32 31
22 24 24 24 23 21 19 16 14 13 14 14 14 16 18 20 22 24 26 27 28 29 29 29 30 30 30 30 31 32 33 33 33 34 34 35 34 34 34 34 35 36 37 38 38 38 37 36 35
24 24 24 24 24 23 21 19 18 17 18 18 19 20 22 24 27 29 30 32 33 33 33 33 33 33 33 33 32 32 32 33 34 35 36 36 37 37 37 37 37 38 39 40 40 41 40 39 38
27 25 24 26 26 25 24 23 21 23 22 22 23 24 26 29 31 33 35 36 36 36 37 37 36 34 33 32 31 30 30 31 32 33 34 34 35 35 35 35 35 36 36 37 38 39 40 40 39
31 28 27 28 28 27 25 25 27 27 26 26 27 29 31 34 35 37 38 38 38 38 38 37 35 33 32 31 30 30 30 29 30 31 31 31 31 31 31 32 33 34 36 36 37 37 38 38 39
33 31 30 33 30 29 28 27 33 29 30 31 32 33 35 37 38 39 39 40 39 39 38 37 35 34 33 32 31 31 30 30 30 30 30 29 29 29 30 31 32 34 36 37 38 38 38 38 38
32 33 33 36 34 33 32 34 38 33 34 35 36 37 38 39 39 40 40 39 38 38 37 36 35 35 34 32 30 29 29 29 29 28 28 27 27 28 28 30 31 33 35 37 38 38 39 39 39
28 31 34 36 38 36 37 39 41 40 39 40 39 39 38 37 37 37 37 36 36 37 36 37 36 35 34 31 29 27 27 27 26 25 24 23 23 24 25 27 29 32 35 37 38 39 39 39 39
27 29 31 37 39 39 41 42 43 43 41 39 37 35 33 32 33 34 34 35 36 37 38 38 37 36 33 30 28 26 25 23 21 20 19 19 19 19 21 23 26 29 32 35 38 40 40 40 40
19 21 24 30 35 36 38 38 38 38 36 33 31 30 30 30 32 34 35 36 37 38 39 39 38 36 32 29 27 25 22 19 17 16 16 16 17 18 19 21 24 26 29 32 35 38 40 41 41
11 13 17 21 25 26 29 27 29 30 29 28 28 28 28 30 32 34 36 38 39 40 40 39 38 35 31 28 26 23 19 17 16 16 17 17 18 19 19 21 23 25 27 29 32 35 37 39 41
11 15 16 18 19 18 23 19 22 26 25 27 29 30 31 32 34 36 38 39 39 39 38 37 35 33 31 28 25 23 21 20 19 20 21 21 22 22 22 23 24 26 27 29 30 31 34 36 39
14 15 15 16 17 16 18 15 16 23 23 25 28 30 31 32 33 35 37 37 37 36 35 36 36 34 32 29 27 25 24 24 24 25 25 26 26 25 25 25 25 26 27 28 29 30 31 33 35
12 12 12 13 13 12 15 11 14 19 19 20 22 23 25 26 29 31 32 34 35 35 36 36 35 34 33 31 30 29 28 29 29 29 29 28 28 27 26 25 26 27 28 29 29 29 29 30 32
12 12 11 11 10 11 17 14 18 19 18 19 20 21 23 24 26 29 31 33 35 36 36 36 35 35 35 34 33 32 32 32 32 32 31 30 29 28 27 26 26 27 28 29 29 29 29 29 30
11 12 12 12 12 13 17 17 20 19 20 20 21 23 24 26 28 30 33 35 36 37 36 37 37 38 38 38 37 36 35 35 35 34 34 32 31 29 28 27 27 27 27 28 29 28 28 28 28
10 11 12 14 14 15 14 20 21 20 22 23 24 26 27 29 30 32 33 35 37 38 39 39 41 42 42 42 41 40 39 39 38 37 36 34 32 31 29 28 27 26 27 27 28 28 28 28 27
11 12 13 13 15 15 15 18 23 21 23 25 27 30 32 34 36 37 38 39 40 41 43 44 45 46 46 46 46 44 43 42 41 40 38 36 34 32 30 29 27 26 26 27 27 28 28 27 27
14 14 14 16 17 18 18 21 24 25 27 29 32 34 36 38 40 42 43 44 45 46 47 48 49 50 50 51 50 50 49 48 46 44 42 39 37 34 32 30 28 27 26 27 27 28 28 27 27
17 17 17 18 20 22 22 27 24 27 30 32 35 37 39 41 43 44 46 48 49 50 52 53 53 55 55 56 56 56 56 54 52 50 47 43 40 37 34 31 29 28 27 27 27 28 28 28 27
Wind_Direction
85 78 73 70 68 69 86 100 104 106 103 100 97 94 94 99 104 111 117 128 141 142 123 107 103 100 53 353 344 344 345 349 355 2 9 16 21 25 28 30 32 33 35 39 46 50 52 53 52
97 81 71 64 63 49 57 86 115 116 113 108 103 98 94 93 94 89 79 65 46 50 76 80 74 358 314 311 313 318 324 327 332 338 344 349 356 3 8 8 6 3 1 357 356 358 6 12 22
145 112 81 63 61 38 11 13 44 94 108 114 107 102 98 96 92 81 64 29 2 357 4 2 341 319 311 307 306 307 312 316 323 330 334 335 339 347 352 353 353 351 346 343 338 333 328 327 329
203 184 163 58 11 340 336 337 338 338 338 350 58 94 99 101 94 78 41 2 347 350 358 352 337 322 313 308 305 304 307 312 319 324 326 325 327 334 338 341 342 343 340 337 334 329 323 317 311
234 230 234 241 256 290 313 315 317 314 305 306 310 329 35 69 54 35 5 337 333 341 352 346 338 328 316 310 306 302 304 308 313 317 318 317 318 322 327 331 332 334 335 333 331 327 321 316 310
243 241 240 242 252 264 285 301 306 296 284 281 281 284 316 57 63 48 19 345 339 338 336 324 318 314 309 305 302 299 298 299 303 306 308 308 309 313 315 318 321 325 327 327 326 324 318 312 307
244 240 237 242 253 255 269 293 305 294 277 264 258 247 245 144 93 58 15 352 345 338 329 320 313 308 303 298 294 291 288 288 290 293 296 298 300 303 306 308 311 313 315 316 316 316 315 311 304
246 244 244 246 250 252 259 280 296 290 279 261 250 239 244 263 285 312 318 321 322 321 317 312 307 303 299 294 291 288 286 285 285 287 289 291 293 295 296 298 299 301 302 303 303 304 305 304 302
247 246 245 244 245 248 249 260 274 281 267 253 249 253 262 278 285 296 302 305 307 308 308 306 303 299 296 293 290 288 286 285 284 285 285 285 286 286 286 288 289 290 291 291 291 291 293 293 293
245 244 245 248 247 247 243 248 259 261 250 249 256 263 273 280 286 293 297 300 302 303 303 303 301 299 296 293 290 287 284 283 283 283 282 281 280 279 279 280 281 281 282 282 282 282 282 283 284
244 244 249 250 250 249 246 246 250 248 248 251 262 272 279 284 289 293 297 299 300 302 302 302 301 299 296 293 290 287 284 282 281 280 280 279 278 277 276 276 276 276 276 277 277 277 277 277 278
243 245 248 249 250 251 251 251 250 250 253 260 271 279 284 288 292 295 298 299 301 302 303 303 302 300 298 294 291 288 284 282 280 279 278 278 278 277 276 276 276 276 276 275 275 274 275 275 275
239 243 246 248 249 251 255 256 255 257 260 267 274 279 284 287 291 294 295 298 300 302 302 302 301 301 299 297 293 289 285 283 281 279 278 278 278 278 279 278 277 277 276 275 274 273 272 273 273
238 241 245 248 250 252 255 258 259 260 264 269 273 277 281 285 287 289 291 294 297 298 299 299 300 301 301 298 295 291 288 285 283 281 281 280 280 280 280 281 281 281 280 280 278 277 273 273 273
236 237 240 244 248 251 255 258 259 260 264 268 271 275 278 281 283 285 287 290 292 294 296 297 298 299 299 297 294 291 288 286 284 283 283 283 283 283 284 284 284 283 284 283 282 281 278 275 273
236 236 238 244 246 251 254 255 259 262 264 266 269 272 275 277 279 281 283 286 289 291 293 294 295 297 297 296 293 290 287 285 284 284 285 285 286 287 288 288 286 285 284 283 281 281 279 277 276
238 236 237 245 247 250 253 254 262 266 265 266 268 269 271 273 275 276 279 282 286 288 290 292 294 296 296 294 291 288 286 284 284 285 285 288 289 291 292 292 290 288 286 285 283 281 279 277 275
239 238 241 245 249 251 254 257 262 264 265 267 268 270 270 270 270 273 276 279 283 285 288 290 293 295 295 293 290 288 286 283 283 283 285 288 291 293 295 296 294 291 288 285 282 280 278 277 276
245 243 244 248 251 253 255 259 263 266 269 271 271 270 269 267 267 269 273 277 281 284 287 290 291 294 294 291 290 290 286 282 281 280 284 288 292 296 299 301 299 295 291 286 282 278 276 275 274
253 251 253 256 256 257 260 263 267 271 273 273 271 269 266 264 265 268 272 276 280 282 285 287 290 292 291 290 291 289 286 283 282 284 287 291 296 301 305 308 308 305 299 293 286 280 276 273 272
267 260 260 263 267 270 270 273 276 273 273 272 269 266 264 264 267 269 272 275 278 281 284 287 290 291 291 291 291 289 287 284 285 287 288 292 298 302 307 311 313 314 310 304 296 287 279 274 271
283 274 275 277 279 278 278 279 276 278 274 270 267 264 263 263 266 268 270 273 275 278 280 282 286 289 289 290 290 288 286 282 281 283 284 288 292 297 302 307 312 315 315 311 304 296 287 278 272
274 281 284 286 287 286 285 283 273 277 273 269 266 265 265 265 265 265 267 270 272 274 277 281 285 286 288 288 287 285 281 279 279 279 280 284 287 292 297 301 307 313 316 316 312 306 296 286 277
289 292 298 303 304 296 287 288 270 278 282 279 278 276 274 274 273 270 268 268 268 271 276 280 284 286 287 287 285 282 279 276 276 277 278 280 284 288 294 300 304 310 314 317 315 311 304 294 284
302 303 306 306 299 287 293 291 273 288 288 287 286 283 281 279 278 277 274 273 275 277 280 281 283 284 284 284 282 279 277 275 275 275 277 279 283 287 292 297 303 308 313 316 316 313 310 301 291
299 295 291 285 279 280 295 290 289 292 292 291 290 287 284 282 280 278 277 277 277 278 280 280 280 280 281 280 279 277 275 274 275 276 278 280 283 287 290 294 300 305 309 314 316 315 313 307 297
305 297 290 287 289 288 283 286 290 291 292 291 290 288 286 283 282 280 279 278 278 277 277 277 277 277 277 277 276 275 274 274 275 276 278 281 283 286 289 293 297 302 307 311 315 316 314 310 302
309 303 299 294 289 285 285 290 289 292 288 286 285 286 285 284 284 282 280 278 277 276 276 275 275 275 275 275 275 275 275 275 275 276 278 280 282 284 286 290 294 299 303 308 312 315 315 312 306
319 316 310 301 296 293 289 281 289 291 287 285 284 284 283 282 281 281 280 279 277 276 275 274 274 275 275 275 275 276 276 276 276 277 277 278 280 282 284 287 290 295 299 304 308 312 313 312 308
321 320 316 310 306 303 301 293 299 292 290 289 287 286 284 283 281 280 279 278 277 277 276 275 274 274 274 274 275 275 276 276 276 276 276 277 278 279 281 284 287 291 295 299 303 306 309 308 306
Height
5930 5931 5931 5932 5934 5935 5934 5934 5933 5932 5931 5931 5930 5930 5930 5931 5932 5934 5932 5930 5930 5929 5929 5928 5929 5929 5928 5927 5926 5925 5924 5922 5921 5919 5918 5917 5916 5915 5915 5914 5913 5912 5911 5910 5909 5908 5906 5905 5904
5931 5932 5933 5934 5935 5936 5935 5935 5934 5933 5932 5931 5931 5931 5931 5931 5931 5931 5931 5931 5930 5930 5929 5929 5929 5929 5928 5927 5926 5925 5924 5922 5921 5919 5918 5917 5916 5916 5915 5914 5914 5913 5911 5910 5909 5908 5907 5905 5904
5931 5932 5934 5934 5935 5936 5935 5934 5934 5933 5932 5932 5931 5931 5931 5931 5931 5931 5931 5931 5930 5930 5929 5929 5929 5929 5928 5927 5926 5924 5923 5922 5920 5919 5918 5917 5916 5916 5915 5914 5913 5913 5911 5910 5909 5908 5906 5905 5904
5931 5933 5934 5935 5935 5934 5934 5933 5932 5932 5932 5931 5931 5931 5930 5930 5930 5930 5930 5930 5929 5929 5929 5928 5928 5928 5927 5926 5925 5924 5923 5921 5920 5919 5918 5917 5916 5915 5914 5913 5912 5912 5911 5909 5908 5907 5906 5904 5903
5931 5932 5934 5935 5934 5933 5933 5932 5932 5931 5931 5930 5930 5929 5929 5929 5928 5929 5928 5928 5928 5928 5927 5927 5927 5926 5926 5925 5924 5923 5922 5920 5919 5918 5917 5916 5915 5914 5913 5912 5911 5910 5909 5908 5907 5905 5904 5903 5902
5930 5932 5934 5935 5933 5933 5932 5932 5931 5931 5930 5929 5929 5928 5927 5927 5927 5927 5927 5927 5927 5926 5925 5925 5925 5924 5924 5923 5922 5921 5920 5919 5918 5917 5915 5914 5914 5913 5911 5910 5909 5908 5907 5906 5905 5904 5902 5901 5900
5928 5930 5932 5933 5932 5932 5933 5932 5931 5930 5929 5928 5928 5927 5927 5926 5926 5926 5926 5926 5925 5925 5924 5924 5923 5923 5922 5921 5920 5919 5918 5917 5915 5914 5913 5912 5911 5910 5909 5908 5907 5906 5905 5904 5903 5902 5901 5899 5898
5925 5928 5929 5930 5930 5931 5932 5931 5930 5929 5928 5928 5927 5926 5926 5926 5925 5925 5925 5924 5924 5924 5923 5922 5922 5921 5920 5919 5918 5917 5916 5914 5913 5912 5910 5909 5908 5907 5906 5905 5903 5902 5902 5901 5900 5899 5898 5897 5896
5922 5926 5927 5927 5928 5929 5930 5930 5929 5929 5928 5927 5926 5925 5925 5924 5924 5923 5923 5922 5922 5921 5921 5920 5919 5918 5917 5916 5915 5914 5912 5911 5910 5908 5907 5905 5904 5903 5901 5900 5899 5898 5897 5896 5896 5895 5894 5893 5892
5919 5922 5923 5923 5925 5926 5927 5928 5928 5928 5927 5926 5925 5924 5923 5922 5921 5921 5920 5920 5919 5918 5918 5916 5915 5914 5913 5912 5910 5909 5908 5906 5905 5903 5902 5900 5899 5898 5896 5896 5895 5893 5892 5891 5890 5889 5888 5888 5887
5915 5917 5917 5919 5921 5922 5924 5925 5926 5926 5925 5924 5923 5922 5921 5920 5919 5918 5917 5917 5916 5915 5914 5912 5911 5910 5908 5907 5905 5904 5902 5900 5899 5897 5896 5894 5893 5892 5891 5890 5889 5887 5886 5885 5884 5883 5882 5882 5881
5911 5912 5913 5914 5916 5918 5920 5922 5923 5923 5922 5921 5920 5919 5918 5917 5915 5914 5913 5912 5912 5910 5909 5908 5906 5904 5903 5901 5899 5897 5895 5894 5892 5890 5889 5887 5886 5885 5884 5883 5882 5881 5880 5878 5877 5876 5875 5875 5874
5907 5907 5909 5910 5912 5914 5915 5917 5918 5919 5918 5918 5917 5916 5914 5913 5911 5910 5909 5908 5906 5905 5903 5902 5900 5898 5896 5894 5892 5890 5888 5886 5884 5883 5881 5880 5879 5877 5877 5876 5875 5873 5872 5870 5869 5868 5867 5867 5866
5902 5904 5905 5906 5907 5909 5911 5913 5914 5914 5914 5914 5913 5912 5910 5908 5907 5905 5904 5902 5901 5899 5898 5896 5894 5892 5889 5887 5885 5882 5880 5878 5876 5875 5873 5872 5871 5869 5868 5868 5866 5865 5863 5862 5861 5860 5858 5858 5858
5897 5900 5901 5901 5903 5905 5907 5909 5909 5909 5909 5909 5908 5907 5905 5903 5902 5900 5898 5897 5895 5893 5891 5889 5887 5885 5883 5880 5878 5876 5874 5871 5869 5867 5866 5864 5863 5862 5861 5860 5859 5857 5855 5854 5853 5851 5850 5849 5849
5893 5896 5898 5896 5898 5900 5904 5905 5902 5903 5904 5903 5903 5902 5900 5898 5896 5894 5892 5891 5889 5887 5885 5883 5881 5879 5876 5874 5872 5869 5867 5864 5862 5860 5859 5858 5856 5855 5853 5852 5851 5849 5847 5846 5845 5844 5842 5841 5841
5888 5891 5892 5891 5893 5895 5898 5898 5894 5897 5897 5897 5896 5895 5894 5892 5890 5888 5886 5885 5883 5881 5879 5877 5874 5872 5870 5867 5865 5862 5860 5858 5856 5854 5852 5851 5850 5848 5847 5845 5843 5841 5839 5837 5836 5834 5833 5832 5831
5882 5884 5885 5886 5885 5889 5890 5889 5888 5889 5890 5890 5889 5888 5887 5886 5884 5882 5880 5879 5877 5875 5872 5870 5868 5865 5863 5860 5858 5856 5854 5852 5850 5848 5846 5845 5844 5842 5840 5838 5836 5833 5830 5828 5826 5825 5823 5822 5822
5876 5878 5880 5879 5879 5882 5882 5882 5881 5881 5882 5882 5881 5881 5880 5879 5878 5876 5875 5873 5870 5868 5865 5863 5860 5858 5856 5853 5851 5849 5847 5845 5844 5842 5841 5839 5838 5836 5834 5831 5829 5826 5823 5820 5817 5815 5814 5813 5812
5872 5874 5875 5874 5873 5875 5875 5876 5875 5874 5874 5874 5874 5874 5874 5873 5872 5870 5868 5866 5863 5860 5858 5855 5853 5851 5848 5846 5845 5842 5840 5839 5837 5836 5835 5833 5832 5830 5828 5825 5822 5818 5815 5812 5808 5806 5805 5804 5803
5869 5870 5870 5869 5868 5869 5869 5870 5868 5867 5867 5867 5867 5867 5867 5866 5865 5863 5860 5857 5855 5852 5849 5847 5846 5844 5841 5839 5837 5836 5834 5833 5831 5830 5829 5827 5826 5824 5821 5818 5815 5811 5807 5804 5800 5797 5795 5794 5793
5867 5865 5865 5864 5865 5866 5864 5865 5864 5860 5860 5860 5859 5859 5859 5858 5857 5854 5851 5848 5846 5843 5841 5839 5838 5836 5834 5832 5830 5829 5828 5826 5825 5824 5822 5821 5819 5817 5814 5811 5808 5804 5800 5796 5792 5788 5785 5783 5783
5862 5861 5861 5860 5860 5860 5859 5860 5860 5853 5853 5852 5851 5850 5850 5849 5847 5844 5841 5839 5837 5835 5833 5831 5830 5828 5827 5825 5823 5822 5821 5820 5819 5818 5816 5814 5812 5810 5807 5804 5800 5797 5793 5788 5784 5780 5777 5774 5772
5859 5858 5858 5857 5857 5857 5855 5855 5854 5848 5847 5846 5844 5843 5842 5841 5839 5836 5832 5830 5827 5826 5825 5823 5822 5820 5819 5817 5816 5815 5813 5812 5811 5810 5809 5807 5805 5802 5799 5796 5793 5789 5785 5781 5777 5772 5769 5765 5763
5857 5857 5858 5858 5858 5856 5851 5850 5847 5844 5842 5841 5840 5838 5836 5835 5833 5830 5827 5823 5822 5820 5818 5816 5814 5812 5811 5809 5808 5807 5805 5804 5803 5802 5801 5799 5797 5794 5792 5789 5785 5782 5778 5774 5770 5765 5761 5758 5755
5855 5855 5855 5855 5855 5853 5849 5846 5842 5839 5838 5836 5835 5833 5831 5829 5827 5824 5821 5818 5815 5813 5810 5808 5806 5804 5802 5801 5800 5799 5797 5796 5795 5793 5792 5790 5788 5786 5783 5780 5777 5774 5771 5767 5763 5758 5754 5751 5748
5852 5851 5851 5850 5848 5847 5846 5841 5837 5835 5833 5831 5829 5826 5824 5822 5819 5817 5814 5811 5808 5805 5802 5800 5797 5795 5793 5791 5790 5789 5788 5786 5785 5783 5782 5780 5778 5776 5774 5772 5769 5766 5763 5760 5756 5752 5748 5744 5741
5851 5849 5847 5846 5844 5844 5843 5840 5836 5831 5828 5825 5822 5819 5816 5813 5810 5807 5804 5801 5798 5795 5792 5789 5787 5784 5782 5780 5778 5777 5776 5775 5774 5772 5771 5770 5768 5766 5764 5763 5760 5758 5755 5752 5748 5745 5741 5737 5734
5848 5846 5843 5842 5840 5838 5837 5837 5830 5826 5822 5818 5814 5811 5807 5804 5800 5796 5792 5789 5786 5783 5780 5777 5774 5771 5769 5766 5764 5763 5762 5761 5760 5759 5759 5758 5757 5756 5754 5753 5751 5748 5746 5744 5741 5738 5734 5731 5728
5844 5842 5839 5837 5834 5831 5829 5829 5824 5818 5814 5810 5806 5802 5797 5793 5789 5784 5780 5776 5772 5768 5765 5762 5759 5756 5753 5751 5749 5747 5746 5745 5745 5745 5745 5744 5744 5744 5743 5742 5740 5739 5737 5735 5733 5730 5727 5725 5722